Location: Caltech
(34.1382°N, 118.1253°W)
Time: 13:29:50
(UTC-07:00)

Sapphire - Visible Passes

Search period start: 11 July 2014 00:00
Search period end: 21 July 2014 00:00
Orbit: 788 x 795 km, 67.1° (Epoch: 10 July)

Date Brightness Start Highest point End Pass type
(mag) Time Alt. Az. Time Alt. Az. Time Alt. Az.
11 Jul ? 05:02:26 10° SSW 05:07:50 89° ESE 05:13:17 10° NNE visible
12 Jul ? 04:32:41 13° SSW 04:37:27 63° ESE 04:42:48 10° NNE visible
13 Jul ? 04:03:31 19° S 04:07:06 44° ESE 04:12:13 10° NE visible
14 Jul ? 03:34:19 21° SSE 03:36:47 31° ESE 03:41:29 10° NE visible
14 Jul ? 05:15:23 10° WSW 05:20:06 30° WNW 05:24:51 10° N visible
15 Jul ? 03:05:03 20° SE 03:06:30 22° ESE 03:10:32 10° ENE visible
15 Jul ? 04:45:49 17° WSW 04:49:35 42° WNW 04:54:42 10° NNE visible
16 Jul ? 02:35:44 15° ESE 02:36:14 15° ESE 02:39:13 10° ENE visible
16 Jul ? 04:16:30 30° SW 04:19:06 58° WNW 04:24:26 10° NNE visible
17 Jul ? 03:47:08 49° SW 03:48:39 82° WNW 03:54:05 10° NNE visible
18 Jul ? 03:17:43 66° SSE 03:18:15 71° ESE 03:23:39 10° NNE visible
18 Jul ? 04:59:08 10° W 05:02:12 15° NW 05:05:16 10° NNW visible
19 Jul ? 02:48:15 49° E 02:48:15 49° E 02:53:06 10° NE visible
19 Jul ? 04:29:00 15° W 04:31:33 20° NW 04:35:32 10° N visible
20 Jul ? 02:18:45 31° E 02:18:45 31° E 02:22:25 10° NE visible
20 Jul ? 03:59:30 24° W 04:00:58 27° NW 04:05:33 10° N visible
